When you browse on this site, cookies collect data to enhance your experience and personalize the content and advertising you see.
Visit our Privacy Policy to learn more. By continuing to use the site, you agree to this use of cookies and data.
  • In Belgium
  • List of Countries
  • For 7 days
  • Water Temperature
  • Weather Map
  • Weather Widgets
  • user-avatar
    Login

    Hourly Weather Szeged

    Today, 5 April, Sunday

    Time Temperature Precipitation Wind Pressure Humidity
    00:00 +7°C° 0 mm 6 mps 761 mmHg 61%
    01:00 +6°C° 0 mm 5 mps 761 mmHg 63%
    02:00 +6°C° 0 mm 5 mps 761 mmHg 65%
    03:00 +5°C° 0 mm 5 mps 761 mmHg 67%
    04:00 +5°C° 0 mm 5 mps 761 mmHg 69%
    05:00 +5°C° 0 mm 5 mps 762 mmHg 69%
    06:00 +6°C° 0 mm 5 mps 762 mmHg 70%
    07:00 +6°C° 0 mm 5 mps 763 mmHg 69%
    08:00 +9°C° 0 mm 5 mps 763 mmHg 64%
    09:00 +12°C° 0 mm 4 mps 763 mmHg 60%
    10:00 +14°C° 0 mm 4 mps 763 mmHg 56%
    11:00 +15°C° 0 mm 4 mps 763 mmHg 52%
    12:00 +17°C° 0 mm 4 mps 763 mmHg 48%
    13:00 +18°C° 0 mm 4 mps 763 mmHg 44%
    14:00 +18°C° 0 mm 4 mps 763 mmHg 44%
    15:00 +18°C° 0 mm 4 mps 763 mmHg 44%
    16:00 +18°C° 0 mm 4 mps 762 mmHg 44%
    17:00 +15°C° 0 mm 4 mps 762 mmHg 50%
    18:00 +13°C° 0 mm 4 mps 763 mmHg 57%
    19:00 +12°C° 0 mm 4 mps 763 mmHg 63%
    20:00 +11°C° 0 mm 4 mps 763 mmHg 65%
    21:00 +10°C° 0 mm 3 mps 764 mmHg 68%
    22:00 +9°C° 0 mm 3 mps 764 mmHg 71%
    23:00 +9°C° 0 mm 3 mps 764 mmHg 66%

    Tomorrow, 6 April, Monday

    Time Temperature Precipitation Wind Pressure Humidity
    00:00 +7°C° 0 mm 4 mps 765 mmHg 61%
    01:00 +7°C° 0 mm 4 mps 765 mmHg 56%
    02:00 +6°C° 0 mm 4 mps 765 mmHg 55%
    03:00 +7°C° 0 mm 3 mps 766 mmHg 54%
    04:00 +5°C° 0 mm 3 mps 766 mmHg 53%
    05:00 +7°C° 0 mm 3 mps 766 mmHg 51%
    06:00 +8°C° 0 mm 3 mps 767 mmHg 50%
    07:00 +8°C° 0 mm 3 mps 767 mmHg 49%
    08:00 +10°C° 0 mm 4 mps 767 mmHg 45%
    09:00 +11°C° 0 mm 4 mps 768 mmHg 42%
    10:00 +13°C° 0 mm 4 mps 768 mmHg 38%
    11:00 +14°C° 0 mm 4 mps 768 mmHg 37%
    12:00 +14°C° 0 mm 4 mps 768 mmHg 36%
    13:00 +16°C° 0 mm 3 mps 768 mmHg 35%
    14:00 +16°C° 0 mm 3 mps 767 mmHg 36%
    15:00 +16°C° 0 mm 3 mps 767 mmHg 37%
    16:00 +16°C° 0 mm 3 mps 767 mmHg 38%
    17:00 +13°C° 0 mm 3 mps 767 mmHg 43%
    18:00 +13°C° 0 mm 2 mps 767 mmHg 48%
    19:00 +10°C° 0 mm 2 mps 767 mmHg 53%
    20:00 +9°C° 0 mm 2 mps 767 mmHg 56%
    21:00 +9°C° 0 mm 2 mps 767 mmHg 58%
    22:00 +8°C° 0 mm 2 mps 768 mmHg 60%
    23:00 +8°C° 0 mm 2 mps 768 mmHg 58%

    Day after tomorrow, 7 April, Tuesday

    Time Temperature Precipitation Wind Pressure Humidity
    00:00 +7°C° 0 mm 2 mps 768 mmHg 55%
    01:00 +6°C° 0 mm 2 mps 768 mmHg 52%
    02:00 +6°C° 0 mm 2 mps 768 mmHg 51%
    03:00 +6°C° 0 mm 2 mps 768 mmHg 50%
    04:00 +5°C° 0 mm 2 mps 768 mmHg 49%
    05:00 +6°C° 0 mm 2 mps 768 mmHg 49%
    06:00 +5°C° 0 mm 3 mps 769 mmHg 48%
    07:00 +7°C° 0 mm 3 mps 769 mmHg 48%
    08:00 +9°C° 0 mm 3 mps 769 mmHg 45%
    09:00 +11°C° 0 mm 3 mps 769 mmHg 43%
    10:00 +13°C° 0 mm 3 mps 769 mmHg 41%
    11:00 +14°C° 0 mm 3 mps 769 mmHg 40%
    12:00 +16°C° 0 mm 3 mps 769 mmHg 39%
    13:00 +17°C° 0 mm 3 mps 768 mmHg 38%
    14:00 +17°C° 0 mm 3 mps 768 mmHg 38%
    15:00 +17°C° 0 mm 2 mps 767 mmHg 39%
    16:00 +18°C° 0 mm 2 mps 767 mmHg 39%
    17:00 +16°C° 0 mm 2 mps 767 mmHg 44%
    18:00 +14°C° 0 mm 1 mps 767 mmHg 49%
    19:00 +12°C° 0 mm 1 mps 767 mmHg 55%
    20:00 +11°C° 0 mm 1 mps 767 mmHg 56%
    21:00 +11°C° 0 mm 1 mps 767 mmHg 58%
    22:00 +10°C° 0 mm 1 mps 767 mmHg 60%
    23:00 +10°C° 0 mm 1 mps 767 mmHg 61%

    8 April, Wednesday

    Time Temperature Precipitation Wind Pressure Humidity
    00:00 +9°C° 0 mm 1 mps 767 mmHg 62%
    01:00 +9°C° 0 mm 1 mps 767 mmHg 62%
    02:00 +7°C° 0 mm 0 mps 767 mmHg 63%
    03:00 +7°C° 0 mm 0 mps 767 mmHg 64%
    04:00 +7°C° 0 mm 0 mps 767 mmHg 65%
    05:00 +8°C° 0 mm 0 mps 767 mmHg 62%
    06:00 +10°C° 0 mm 1 mps 767 mmHg 60%
    07:00 +11°C° 0 mm 1 mps 767 mmHg 57%
    08:00 +13°C° 0 mm 1 mps 766 mmHg 52%
    09:00 +14°C° 0 mm 1 mps 766 mmHg 46%
    10:00 +16°C° 0 mm 1 mps 766 mmHg 40%
    11:00 +18°C° 0 mm 1 mps 766 mmHg 39%
    12:00 +18°C° 0 mm 2 mps 765 mmHg 37%
    13:00 +19°C° 0 mm 2 mps 765 mmHg 36%
    14:00 +19°C° 0 mm 2 mps 764 mmHg 36%
    15:00 +19°C° 0 mm 2 mps 763 mmHg 37%
    16:00 +19°C° 0 mm 2 mps 763 mmHg 38%
    17:00 +17°C° 0 mm 2 mps 763 mmHg 44%
    18:00 +15°C° 0 mm 2 mps 763 mmHg 50%
    19:00 +13°C° 0 mm 1 mps 762 mmHg 55%
    20:00 +13°C° 0 mm 1 mps 762 mmHg 57%
    21:00 +12°C° 0 mm 1 mps 762 mmHg 59%
    22:00 +10°C° 0 mm 0 mps 762 mmHg 60%
    23:00 +10°C° 0 mm 0 mps 762 mmHg 61%

    9 April, Thursday

    Time Temperature Precipitation Wind Pressure Humidity
    00:00 +10°C° 0 mm 0 mps 762 mmHg 63%
    01:00 +9°C° 0 mm 0 mps 762 mmHg 64%
    02:00 +9°C° 0 mm 0 mps 762 mmHg 65%
    03:00 +8°C° 0 mm 0 mps 762 mmHg 67%
    04:00 +8°C° 0 mm 0 mps 762 mmHg 68%
    05:00 +9°C° 0 mm 0 mps 762 mmHg 66%
    06:00 +10°C° 0 mm 0 mps 762 mmHg 63%
    07:00 +12°C° 0 mm 1 mps 762 mmHg 61%
    08:00 +14°C° 0 mm 1 mps 762 mmHg 55%
    09:00 +16°C° 0 mm 1 mps 762 mmHg 50%
    10:00 +19°C° 0 mm 1 mps 761 mmHg 45%
    11:00 +18°C° 0 mm 0 mps 761 mmHg 42%
    12:00 +19°C° 0 mm 0 mps 761 mmHg 38%
    13:00 +20°C° 0 mm 0 mps 760 mmHg 35%
    14:00 +22°C° 0 mm 1 mps 760 mmHg 35%
    15:00 +22°C° 0 mm 1 mps 759 mmHg 34%
    16:00 +21°C° 0 mm 1 mps 759 mmHg 34%
    17:00 +20°C° 0 mm 1 mps 759 mmHg 38%
    18:00 +18°C° 0 mm 1 mps 759 mmHg 43%
    19:00 +14°C° 0 mm 0 mps 759 mmHg 48%
    20:00 +14°C° 0 mm 1 mps 759 mmHg 49%
    21:00 +14°C° 0 mm 1 mps 759 mmHg 51%
    22:00 +13°C° 0 mm 1 mps 759 mmHg 52%
    23:00 +13°C° 0 mm 1 mps 759 mmHg 53%

    10 April, Friday

    Time Temperature Precipitation Wind Pressure Humidity
    00:00 +12°C° 0 mm 1 mps 759 mmHg 55%
    01:00 +12°C° 0 mm 2 mps 759 mmHg 56%
    02:00 +10°C° 0 mm 2 mps 759 mmHg 58%
    03:00 +10°C° 0 mm 2 mps 759 mmHg 60%
    04:00 +9°C° 0 mm 2 mps 759 mmHg 61%
    05:00 +10°C° 0 mm 2 mps 759 mmHg 60%
    06:00 +12°C° 0 mm 2 mps 759 mmHg 60%
    07:00 +13°C° 0 mm 2 mps 759 mmHg 59%
    08:00 +15°C° 0 mm 2 mps 759 mmHg 55%
    09:00 +17°C° 0 mm 2 mps 759 mmHg 51%
    10:00 +18°C° 0 mm 2 mps 759 mmHg 46%
    11:00 +19°C° 0 mm 3 mps 759 mmHg 44%
    12:00 +20°C° 0 mm 3 mps 759 mmHg 41%
    13:00 +21°C° 0 mm 3 mps 759 mmHg 39%
    14:00 +21°C° 0 mm 3 mps 758 mmHg 40%
    15:00 +21°C° 0 mm 4 mps 758 mmHg 42%
    16:00 +21°C° 0 mm 4 mps 758 mmHg 43%
    17:00 +19°C° 0 mm 3 mps 758 mmHg 50%
    18:00 +17°C° 0 mm 3 mps 758 mmHg 57%
    19:00 +15°C° 0 mm 2 mps 758 mmHg 64%
    20:00 +14°C° 0 mm 2 mps 759 mmHg 66%
    21:00 +13°C° 0 mm 2 mps 759 mmHg 68%
    22:00 +13°C° 0 mm 2 mps 759 mmHg 70%
    23:00 +12°C° 0 mm 2 mps 759 mmHg 71%
    Show more